GW1082 Weather Reports


time (UTC)temp
C
wind
direction
speed
KPH
gust
KPH
rain 1hr
cm
rain 24hr
cm
rain mn
cm
humidity
%
barometer
mb
20260906193024 25 134 1.6 11.3 0.00 0.00 0.00 73 1019.0
20260906191526 26 186 0.0 8.0 0.00 0.00 0.00 75 1018.0
20260906190032 26 213 1.6 8.0 0.00 0.00 0.00 72 1017.6
20260906184543 26 217 3.2 8.0 0.00 0.00 0.00 73 1017.1
20260906183035 26 198 3.2 11.3 0.00 0.00 0.00 74 1017.2
20260906181549 27 202 3.2 8.0 0.00 0.00 0.00 75 1017.4
20260906180030 27 212 0.0 8.0 0.00 0.00 0.00 75 1017.3
20260906174533 27 260 1.6 6.4 0.00 0.00 0.00 75 1017.2
20260906173031 26 218 4.8 8.0 0.00 0.00 0.00 76 1017.3
20260906171530 26 285 1.6 6.4 0.00 0.00 0.00 80 1017.7
20260906170027 26 150 4.8 9.7 0.00 0.00 0.00 81 1017.5
20260906164534 26 211 3.2 8.0 0.00 0.00 0.00 85 1017.3
20260906163044 26 191 3.2 6.4 0.00 0.00 0.00 87 1017.2
20260906161533 25 193 3.2 6.4 0.00 0.00 0.00 87 1017.4
20260906160028 25 192 4.8 8.0 0.00 0.00 0.00 87 1017.3
20260906154510 25 169 1.6 8.0 0.00 0.00 0.00 87 1016.9
20260906153015 25 193 1.6 6.4 0.00 0.00 0.00 88 1016.8
20260906151521 25 184 1.6 4.8 0.00 0.00 0.00 88 1017.0
20260906150029 25 179 0.0 4.8 0.00 0.00 0.00 89 1017.0
20260906144532 25 177 0.0 3.2 0.00 0.00 0.00 89 1017.0
20260906143010 25 125 0.0 0.0 0.00 0.00 0.00 89 1017.0
20260906141516 25 112 0.0 3.2 0.00 0.00 0.00 90 1016.7
20260906140023 24 77 0.0 3.2 0.00 0.00 0.00 91 1016.6
20260906134527 24 193 0.0 3.2 0.00 0.00 0.00 91 1017.0
20260906133036 24 67 0.0 3.2 0.00 0.00 0.00 92 1016.9
20260906131516 23 41 0.0 3.2 0.00 0.00 0.00 92 1017.0
20260906130027 23 144 0.0 0.0 0.00 0.00 0.00 93 1017.0
20260906124529 23 158 0.0 3.2 0.00 0.00 0.00 93 1016.8
20260906123034 23 104 0.0 3.2 0.00 0.00 0.00 93 1016.5
20260906121512 23 115 0.0 3.2 0.00 0.00 0.00 93 1016.4
20260906120017 23 146 0.0 1.6 0.00 0.00 0.00 93 1016.2
20260906114536 23 69 0.0 3.2 0.00 0.00 0.00 93 1016.0
20260906113030 23 108 0.0 3.2 0.00 0.00 0.00 93 1016.0
20260906111531 23 141 0.0 3.2 0.00 0.00 0.00 93 1015.9
20260906110015 23 98 0.0 3.2 0.00 0.00 0.00 93 1015.9
20260906104524 23 140 0.0 0.0 0.00 0.00 0.00 93 1015.9
20260906103027 23 140 0.0 0.0 0.00 0.00 0.00 93 1016.0
20260906101534 23 54 0.0 3.2 0.00 0.00 0.00 93 1016.0
20260906100032 23 158 0.0 3.2 0.00 0.00 0.00 93 1015.8
20260906094518 23 140 0.0 3.2 0.00 0.00 0.00 93 1016.0
20260906093028 23 193 0.0 3.2 0.00 0.00 0.00 93 1016.1
20260906091535 23 181 0.0 3.2 0.00 0.00 0.00 93 1016.2
20260906090033 23 205 0.0 3.2 0.00 0.00 0.00 93 1016.2
20260906084522 23 150 0.0 4.8 0.00 0.00 0.00 93 1016.1
20260906083026 23 150 0.0 3.2 0.00 0.00 0.00 93 1015.9
20260906081538 23 165 0.0 0.0 0.00 0.00 0.00 93 1015.8
20260906080033 23 108 0.0 3.2 0.00 0.00 0.00 93 1015.8
20260906074534 23 165 0.0 3.2 0.00 0.00 0.00 92 1015.7
20260906073024 22 167 0.0 3.2 0.00 0.00 0.00 92 1015.7
20260906071532 22 91 0.0 0.0 0.00 0.00 0.00 92 1015.5
20260906070033 22 91 0.0 3.2 0.00 0.00 0.00 92 1015.7
20260906064523 22 136 0.0 0.0 0.00 0.00 0.00 91 1015.7
20260906063018 22 70 0.0 3.2 0.00 0.00 0.00 91 1015.8
20260906061527 22 70 0.0 3.2 0.00 0.00 0.00 91 1015.9
20260906060036 21 70 0.0 3.2 0.00 0.00 0.00 90 1015.9
20260906054530 22 186 0.0 3.2 0.00 0.00 0.00 89 1015.8
20260906053017 22 186 0.0 3.2 0.00 0.00 0.00 89 1016.1
20260906051525 22 186 0.0 0.0 0.00 0.00 0.00 88 1016.3
20260906050031 22 186 0.0 0.0 0.00 0.00 0.00 88 1016.3
20260906044531 22 186 0.0 0.0 0.00 0.00 0.00 87 1016.4
20260906043035 22 186 0.0 3.2 0.00 0.00 0.00 86 1016.3
20260906041528 22 167 0.0 3.2 0.00 0.00 0.00 86 1016.1
20260906040035 22 167 0.0 1.6 0.00 0.00 0.00 85 1016.1
20260906034535 22 167 0.0 3.2 0.00 0.00 0.00 84 1016.1
20260906033035 22 166 0.0 0.0 0.00 0.00 0.00 83 1015.8
20260906031532 22 176 0.0 0.0 0.00 0.00 0.00 82 1015.8
20260906030024 23 161 0.0 0.0 0.00 0.00 0.00 80 1015.9
20260906024532 23 161 0.0 0.0 0.00 0.00 0.00 79 1015.8
20260906023033 23 161 0.0 3.2 0.00 0.00 0.00 77 1015.8
20260906021532 23 161 0.0 1.6 0.00 0.00 0.00 76 1015.7
20260906020023 24 161 0.0 0.0 0.00 0.00 0.00 74 1015.4
20260906014529 25 161 0.0 0.0 0.00 0.00 0.00 72 1015.3
20260906013031 25 161 0.0 0.0 0.00 0.00 0.00 70 1015.2
20260906011531 26 161 0.0 0.0 0.00 0.00 0.00 68 1015.2
20260906010035 27 161 0.0 0.0 0.00 0.00 0.00 66 1015.0
20260906004525 27 161 0.0 3.2 0.00 0.00 0.00 63 1015.2
20260906003031 28 183 0.0 3.2 0.00 0.00 0.00 64 1015.0
20260906001541 28 183 0.0 3.2 0.00 0.00 0.00 61 1014.7
20260906000033 29 201 0.0 3.2 0.00 0.00 0.00 60 1014.7
20260905234523 30 167 1.6 4.8 0.00 0.00 0.00 57 1014.4
20260905233028 30 183 1.6 3.2 0.00 0.00 0.00 57 1014.3
20260905231536 30 186 0.0 3.2 0.00 0.00 0.00 56 1014.1
20260905230036 31 183 1.6 3.2 0.00 0.00 0.00 56 1014.2
20260905224535 31 168 1.6 6.4 0.00 0.00 0.00 51 1014.1
20260905223026 31 144 1.6 6.4 0.00 0.00 0.00 51 1014.2
20260905221533 32 313 0.0 6.4 0.00 0.00 0.00 49 1014.2
20260905220013 32 94 1.6 6.4 0.00 0.00 0.00 47 1014.3
20260905214519 32 17 1.6 6.4 0.00 0.00 0.00 49 1014.3
20260905213034 32 108 1.6 9.7 0.00 0.00 0.00 49 1014.1
20260905211527 32 167 1.6 6.4 0.00 0.00 0.00 46 1014.2
20260905210008 32 113 0.0 4.8 0.00 0.00 0.00 50 1014.1
20260905204515 32 151 1.6 11.3 0.00 0.00 0.00 48 1014.1
20260905203027 32 207 3.2 9.7 0.00 0.00 0.00 48 1014.1
20260905201530 31 188 3.2 8.0 0.00 0.00 0.00 48 1014.1
20260905200035 31 146 1.6 8.0 0.00 0.00 0.00 50 1014.2
20260905194516 31 124 1.6 8.0 0.00 0.00 0.00 51 1014.1